Regional Weather Roundup
Issued by NWS Charleston, SC

Current Version | Previous Version | Text Only | Print | Product List | Glossary Off
Versions: 1 2 3 4 5 6 7 8 9 10 11 12 13 14 15 16 17 18 19 20 21 22 23 24 25 26 27 28 29 30 31 32 33 34 35 36 37 38 39 40 41 42 43 44 45 46 47 48 49 50
000 ASUS42 KCHS 241425 RWRCHS REGIONAL WEATHER ROUNDUP NATIONAL WEATHER SERVICE CHARLESTON SC 900 AM EST MON NOV 24 2014 NOTE: "FAIR" INDICATES FEW OR NO CLOUDS BELOW 12,000 FEET WITH NO SIGNIFICANT WEATHER AND/OR OBSTRUCTIONS TO VISIBILITY. NOT ALL STATIONS ARE QUALITY CONTROLLED BY THE NATIONAL WEATHER SERVICE. USE DATA WITH CAUTION...ESPECIALLY DEWPOINT OBSERVATIONS. SCZ027-030-031-034>040-042>050-241500- ...SOUTHEAST SOUTH CAROLINA... CITY SKY/WX TMP DP RH WIND PRES REMARKS N CHARLESTON CLOUDY 70 68 93 S13 29.88F WATERFRONT PRK N/A 68 N/A N/A SW9 N/A MOUNT PLEASANT CLOUDY 72 72 100 SW10 29.90R JOHNS ISLAND CLOUDY 70 70 100 S13G21 29.90S FOG PINOPOLIS N/A 72 68 88 S3 29.79S MONCKS CORNER CLOUDY 72 72 100 S8 29.87S FOG SUMMERVILLE CLOUDY 70 70 100 S9 29.90R BEAUFORT MCAS CLOUDY 69 67 93 S8 29.88R BEAUFORT ARPT CLOUDY 66 66 100 S7 29.89R FOG HILTON HEAD IS CLOUDY 68 68 100 S8G17 29.90R FOG WALTERBORO CLOUDY 72 N/A N/A S8 29.88R HAZE ALLENDALE CLOUDY 68 68 100 CALM 29.86R FOG ...SOUTHERN MIDLANDS AND PEE DEE... CITY SKY/WX TMP DP RH WIND PRES REMARKS GEORGETOWN NOT AVBL KINGSTREE NOT AVBL ORANGEBURG CLOUDY 67 65 93 S6 29.85F BARNWELL CLOUDY 66 66 100 SW3 29.87R AIKEN CLOUDY 66 66 100 S10 29.88R MANNING NOT AVBL COLUMBIA CLOUDY 69 64 84 S8 29.83S SUMTER CLOUDY 68 66 94 S9 29.83S FLORENCE CLOUDY 69 66 90 S13 29.86R MYRTLE BEACH CLOUDY 70 64 83 SW9 29.89R FOG N MYRTLE BEACH FOG 65 64 97 SW16 29.89S VSB 3/4 $$ GAZ063-065-086>088-099>101-113>116-118-119-134>141-150-241500- ...SOUTHEAST GEORGIA... CITY SKY/WX TMP DP RH WIND PRES REMARKS SAVANNAH ARPT CLOUDY 75 70 84 S14 29.88R HUNTER AAF CLOUDY 72 72 100 S9 29.88R FORT STEWART CLOUDY 75 71 86 S10G16 29.88R STATESBORO NOT AVBL SYLVANIA RAIN 69 69 98 S6 29.86R CLAXTON PTSUNNY 73 73 100 S10G16 29.86F ...CSRA...CENTRAL AND FAR SOUTHEAST GEORGIA... CITY SKY/WX TMP DP RH WIND PRES REMARKS THOMSON CLOUDY 67 67 100 CALM 29.88R AUGUSTA-BUSH CLOUDY 67 65 93 S7 29.84R AUGUSTA-DANIEL CLOUDY 66 65 96 S6 29.86R SWAINSBORO HVY RAIN N/A N/A N/A SW10G16 29.87R VIDALIA CLOUDY 72 72 100 S8 29.85S FOG HAZLEHURST LGT RAIN 73 73 100 S9 29.84F ALMA CLOUDY 73 70 90 S10 29.87S WAYCROSS CLOUDY 77 74 91 SW14 29.88S JESUP CLOUDY 77 73 88 SW8 29.90R BAXLEY CLOUDY 73 72 94 S10 29.86S BRUNSWICK CLOUDY 73 70 88 SW13 29.92R SAINT SIMONS PTSUNNY 73 69 87 SW10G21 29.93R $$ SCZ027-028-034-036>038-045-046-048>050-GAZ119-141-241500- ...LAKE AND SUPPLEMENTAL COASTAL OBSERVATIONS... STATION/POSITION TIME TEMP WIND PRES WAVE SWELL AIR SEA DIR/SP/G HT/PER HT/PER/DIR (UTC) (F) (DEG/KT/KT) (MB) (FT/S) (FT/S/D) UPR LAKE MARION NOT AVBL WINYAH BAY 1400 67 210/ 12 1012.0S LAKE MURRAY 1300 63 210/ 7/ 8 1009.8R ACE BASIN NERRS 1400 65 CALM 1012.0S FORT PULASKI 1400 65 200/ 9/ 14 1012.7R SAPELO ISLAND NOT AVBL $$ ANZ835-935-AMZ111-154-330-350-352-354-370-450-454-472-241500- ...C-MAN AND BUOY OBSERVATIONS... STATION/POSITION TIME TEMP WIND PRES WAVE SWELL AIR SEA DIR/SP/G HT/PER HT/PER/DIR (UTC) (F) (DEG/KT/KT) (MB) (FT/S) (FT/S/D) FOLLY BEACH CMAN 1400 64 210/ 11/ 12 1012.8R BUOY 41004 1400 75 75 210/ 21/ 25 1011.8R 10/10 7/10 BUOY 41008 1400 68 64 180/ 16/ 19 1012.4R 5/ 9 3/100/ 9 CAPERS NEARSHORE 1300 64 200/ 16/ 19 N/A FRIPP NEARSHORE NOT AVBL STATION/POSITION TIME TEMP WIND PRES WAVE SWELL AIR SEA DIR/SP/G HT/PER HT/PER/DIR (UTC) (F) (DEG/KT/KT) (MB) (FT/S) (FT/S/D) 5E ST. MARYS GA 1400 62 N/A 5/ 9 2/120/11 FRYING PAN BUOY 1400 74 68 220/ 17/ 21 1013.1R 9/ 9 7/140/ 9 BUOY 41025 1400 76 190/ 21/ 25 1012.4R 10/10 8/170/10 CAPE LOOKOUT NC 1400 66 190/ 10/ 11 1012.8R BUOY 41002 1258 75 73 200/ 19/ 23 1017.9R 10/ 8 BUOY 41010 1400 79 78 180/ 17/ 19 1016.4R 9/10 7/120/10 ST AUGUSTINE FL 1400 74 220/ 11/ 14 1014.9R $$

USA.gov is the U.S. government's official web portal to all federal, state and local government web resources and services.